User: anonymous   Login
Location: Bushey
(51.6333°N, 0.3667°W)
Time: 17:50:03
(UTC+00:00)
Language:

SL-08 RB Rocket - Orbit

View from above orbital plane
View from above orbital plane
View from above satellite
View from above satellite

Ground track
Ground track

The orbit data is extracted from the following two-line orbital elements,

1 26387U 00033D   21135.96341330  .00000067  00000-0  19436-4 0  9993
2 26387  97.7763 168.1160 0027892 101.2569 322.9124 14.68700556375259
Epoch (UTC): 15 May 2021 23:07:18
Eccentricity: 0.0027892
inclination: 97.7763°
perigee height: 645 km
apogee height: 685 km
right ascension of ascending node: 168.1160°
argument of perigee: 101.2569°
revolutions per day: 14.68700556
mean anomaly at epoch: 322.9124°
orbit number at epoch: 37525

The dashed part of the orbit path shows where the satellite is in the earth's shadow,  

DLR